Home   Weather   Merseburg   Past weeks

Flag for Germany Past Weather in Merseburg, Saxony-Anhalt, Germany — Yesterday and Last 2 Weeks

Now
48 °F

Broken clouds.


Feels Like: 42 °F
Forecast: 35 / 57 °F
Wind: 18 mph from Northwest

Location: Leipzig-Schkeuditz

Current Time: Apr 23, 2017 at 6:25:33 pm

Latest Report: Apr 23, 2017 at 5:50 pm


Visibility: N/A

Pressure: 30.12 "Hg

Humidity: 46%

Dew Point: 28 °F

Location of MerseburgLocation

Past Weather in Merseburg — Graph

°F

Merseburg Temperature Yesterday

Maximum temperature yesterday: 50 °F (at 12:20 am)
Minimum temperature yesterday: 41 °F (at 10:50 pm)
Average temperature yesterday: 46 °F

High & Low Weather Summary for the Past Weeks

 TemperatureHumidityPressure
High70 °F (Apr 10, 12:50 pm)100% (Apr 9, 12:20 am)30.60 "Hg (Apr 9, 12:20 am)
Low28 °F (Apr 20, 3:50 am)40% (Apr 20, 5:50 pm)29.80 "Hg (Apr 12, 10:20 pm)
Average45 °F73%30.12 "Hg
* Reported Apr 8 5:20 pm — Apr 23 5:20 pm, Merseburg, Weather by CustomWeather, © 2017

Note: Actual official high and low records may vary slightly from our data, if they occured in-between our weather recording intervals... More about our weather records

Advertising

Merseburg Weather History for the Previous 24 Hours

Scroll right to see more
 ConditionsComfort  
Time TempWeatherWind HumidityBarometerVisibility
5:20 pm
Sun, Apr 23
48 °FBroken clouds.20 mph46%30.12 "HgN/A
4:50 pm48 °FBroken clouds.23 mph50%30.12 "HgN/A
4:20 pm50 °FBroken clouds.21 mph47%30.12 "HgN/A
3:50 pm48 °FBroken clouds.23 mph46%30.12 "HgN/A
3:20 pm46 °FBroken clouds.22 mph50%30.12 "HgN/A
2:50 pm46 °FBroken clouds.22 mph50%30.12 "HgN/A
2:20 pm46 °FScattered showers. Broken clouds.17 mph50%30.12 "HgN/A
1:50 pm45 °FScattered showers. Broken clouds.17 mph53%30.12 "HgN/A
1:20 pm48 °FScattered showers. Broken clouds.16 mph54%30.12 "HgN/A
12:50 pm46 °FSprinkles. Broken clouds.14 mph62%30.12 "HgN/A
12:20 pm45 °FSprinkles. Broken clouds.15 mph81%30.15 "HgN/A
11:50 am45 °FSprinkles. Broken clouds.14 mph71%30.15 "HgN/A
11:20 am45 °FSprinkles. Broken clouds.16 mph71%30.15 "HgN/A
10:50 am41 °FSprinkles. Broken clouds.16 mph81%30.15 "HgN/A
10:20 am43 °FPartly sunny.15 mph71%30.15 "HgN/A
9:50 am43 °FPartly sunny.15 mph71%30.15 "HgN/A
9:20 am43 °FPartly sunny.16 mph71%30.15 "HgN/A
8:50 am41 °FPartly sunny.14 mph76%30.15 "HgN/A
8:20 am41 °FPartly sunny.13 mph81%30.15 "HgN/A
7:50 am41 °FBroken clouds.16 mph81%30.12 "HgN/A
7:20 am41 °FBroken clouds.16 mph81%30.12 "HgN/A
6:50 am39 °FPartly sunny.17 mph87%30.12 "HgN/A
6:20 am39 °FPartly sunny.14 mph87%30.12 "HgN/A
5:50 am41 °FPassing clouds.15 mph81%30.09 "HgN/A
5:20 am41 °FPassing clouds.15 mph81%30.09 "HgN/A
4:50 am41 °FPassing clouds.15 mph81%30.09 "HgN/A
4:20 am39 °FPassing clouds.12 mph87%30.09 "HgN/A
3:50 am41 °FSprinkles. Passing clouds.16 mph81%30.09 "HgN/A
3:20 am41 °FSprinkles. Passing clouds.16 mph81%30.09 "HgN/A
2:50 am41 °FPassing clouds.15 mph76%30.09 "HgN/A
2:20 am41 °FPartly cloudy.16 mph76%30.09 "HgN/A
1:50 am41 °FPassing clouds.16 mph76%30.09 "HgN/A
1:20 am41 °FPassing clouds.10 mph76%30.12 "HgN/A
12:50 am41 °FPassing clouds.13 mph76%30.12 "HgN/A
12:20 am39 °FPassing clouds.10 mph75%30.09 "HgN/A
11:50 pm
Sat, Apr 22
41 °FPassing clouds.10 mph76%30.09 "HgN/A
11:20 pm41 °FClear.14 mph70%30.09 "Hg10 mi
10:50 pm41 °FClear.16 mph70%30.09 "Hg10 mi
10:20 pm43 °FPassing clouds.14 mph66%30.09 "HgN/A
9:50 pm45 °FClear.16 mph57%30.09 "Hg10 mi
8:50 pm45 °FSprinkles. Passing clouds.20 mph57%30.09 "HgN/A
8:20 pm45 °FPassing clouds.20 mph57%30.07 "HgN/A
7:50 pm46 °FBroken clouds.17 mph53%30.07 "HgN/A
7:20 pm46 °FSprinkles. Partly sunny.15 mph57%30.07 "HgN/A
6:50 pm46 °FPartly sunny.16 mph57%30.07 "HgN/A
6:20 pm48 °FPartly sunny.15 mph58%30.07 "HgN/A
Weather by CustomWeather, © 2017

See weather overviewHow to use our weather pages